K3JAR-3 Weather Reports


Display with metric or nautical units.
time (UTC)temp
F
wind
direction
speed
MPH
gust
MPH
rain 1hr
in
rain 24hr
in
rain mn
in
humidity
%
barometer
mb
20260510023027 78 104 1.0 2.0 0.00 0.00 0.00 66 1010.7
20260510022018 79 111 2.0 4.0 0.00 0.00 0.00 66 1010.6
20260510021041 79 98 2.0 4.0 0.00 0.00 0.00 66 1010.5
20260510020038 80 103 3.0 4.0 0.00 0.00 0.00 66 1010.3
20260510015016 80 117 2.0 4.0 0.00 0.00 0.00 66 1010.3
20260510014112 81 118 2.0 4.0 0.00 0.00 0.00 65 1010.2
20260510013037 82 126 2.0 4.0 0.00 0.00 0.00 63 1010.1
20260510012019 83 102 5.0 9.0 0.00 0.00 0.00 62 1009.9
20260510011023 84 87 3.0 6.0 0.00 0.00 0.00 59 1009.8
20260510010027 86 118 4.0 6.0 0.00 0.00 0.00 53 1009.7
20260510005030 86 115 2.0 3.0 0.00 0.00 0.00 48 1009.6
20260510004032 87 104 2.0 3.0 0.00 0.00 0.00 47 1009.5
20260510003018 88 180 0.0 1.0 0.00 0.00 0.00 45 1009.6
20260510002021 88 97 0.0 2.0 0.00 0.00 0.00 46 1009.6
20260510001024 88 163 0.0 1.0 0.00 0.00 0.00 49 1009.6
20260510000027 88 92 2.0 3.0 0.00 0.00 0.00 46 1009.5
20260509235031 88 126 2.0 3.0 0.00 0.00 0.00 46 1009.7
20260509234016 89 99 2.0 4.0 0.00 0.00 0.00 45 1009.6
20260509233019 89 171 2.0 3.0 0.00 0.00 0.00 46 1009.7
20260509232023 88 148 2.0 3.0 0.00 0.00 0.00 48 1009.7
20260509231026 89 101 2.0 5.0 0.00 0.00 0.00 47 1009.6
20260509230029 89 121 2.0 4.0 0.00 0.00 0.00 48 1009.6
20260509225046 89 135 3.0 4.0 0.00 0.00 0.00 47 1009.6
20260509224045 89 78 4.0 7.0 0.00 0.00 0.00 45 1009.7
20260509223040 89 92 4.0 6.0 0.00 0.00 0.00 46 1009.7
20260509222019 90 58 4.0 7.0 0.00 0.00 0.00 47 1009.6
20260509221057 90 26 3.0 7.0 0.00 0.00 0.00 48 1009.6
20260509220050 90 81 4.0 6.0 0.00 0.00 0.00 48 1009.7
20260509215029 90 86 5.0 7.0 0.00 0.00 0.00 47 1009.7
20260509214032 90 56 5.0 7.0 0.00 0.00 0.00 47 1010.0
20260509213017 91 96 7.0 9.0 0.00 0.00 0.00 44 1010.0
20260509212021 90 140 2.0 5.0 0.00 0.00 0.00 46 1010.1
20260509211024 90 145 3.0 5.0 0.00 0.00 0.00 47 1010.1
20260509210021 91 66 3.0 8.0 0.00 0.00 0.00 42 1010.3
20260509205025 91 96 2.0 4.0 0.00 0.00 0.00 43 1010.5
20260509204028 91 339 4.0 5.0 0.00 0.02 0.00 42 1010.7
20260509203036 91 79 3.0 6.0 0.00 0.04 0.00 42 1010.9
20260509202017 90 268 2.0 5.0 0.00 0.04 0.00 44 1011.0
20260509201020 89 134 3.0 4.0 0.00 0.04 0.00 45 1011.0
20260509200023 91 30 3.0 6.0 0.00 0.04 0.00 42 1011.2
20260509195026 90 308 3.0 8.0 0.00 0.04 0.00 43 1011.2
20260509194050 90 339 4.0 6.0 0.00 0.04 0.00 43 1011.2
20260509193016 90 292 4.0 8.0 0.00 0.04 0.00 42 1011.3
20260509192018 89 357 2.0 5.0 0.00 0.04 0.00 46 1011.4
20260509191021 89 321 3.0 6.0 0.00 0.04 0.00 46 1011.5
20260509190025 89 55 3.0 9.0 0.00 0.04 0.00 47 1011.5
20260509185043 89 244 3.0 5.0 0.00 0.04 0.00 47 1011.7
20260509184100 89 257 4.0 7.0 0.00 0.04 0.00 46 1011.7
20260509183017 88 280 4.0 6.0 0.00 0.04 0.00 46 1011.7
20260509182032 88 258 4.0 10.0 0.00 0.04 0.00 48 1011.8
20260509181017 87 252 4.0 5.0 0.00 0.04 0.00 47 1012.0
20260509180021 87 293 5.0 9.0 0.00 0.04 0.00 47 1012.1
20260509175044 87 271 4.0 7.0 0.00 0.04 0.00 50 1012.2
20260509174027 87 322 6.0 9.0 0.00 0.04 0.00 49 1012.2
20260509173036 86 327 4.0 7.0 0.00 0.04 0.00 51 1012.3
20260509172016 86 337 5.0 6.0 0.00 0.04 0.00 52 1012.4
20260509171019 86 298 4.0 8.0 0.00 0.04 0.00 54 1012.5
20260509165026 84 287 7.0 14.0 0.00 0.04 0.00 54 1012.7
20260509164029 84 308 8.0 12.0 0.00 0.04 0.00 54 1012.6
20260509163033 83 270 4.0 8.0 0.00 0.04 0.00 56 1012.6
20260509162018 83 290 5.0 8.0 0.00 0.04 0.00 56 1012.6
20260509161020 83 275 5.0 9.0 0.00 0.04 0.00 55 1012.7
20260509160019 82 285 4.0 7.0 0.00 0.04 0.00 55 1012.6
20260509155022 82 299 5.0 8.0 0.00 0.04 0.00 56 1012.5
20260509154026 81 300 5.0 11.0 0.00 0.04 0.00 57 1012.6
20260509153054 81 273 9.0 12.0 0.00 0.04 0.00 56 1012.5
20260509152026 81 296 7.0 10.0 0.00 0.04 0.00 59 1012.5
20260509151024 80 265 5.0 8.0 0.00 0.04 0.00 64 1012.5
20260509150035 80 301 6.0 10.0 0.00 0.04 0.00 65 1012.5
20260509145018 79 299 5.0 8.0 0.00 0.04 0.00 70 1012.6
20260509144016 78 291 3.0 6.0 0.00 0.04 0.00 72 1012.7
20260509143025 77 276 4.0 9.0 0.00 0.04 0.00 73 1012.7
20260509142028 77 320 4.0 7.0 0.00 0.04 0.00 75 1012.7
20260509141032 76 311 4.0 7.0 0.00 0.04 0.00 78 1012.7
20260509140057 75 306 4.0 6.0 0.00 0.04 0.00 80 1012.7
20260509135025 74 281 3.0 5.0 0.00 0.04 0.00 81 1012.5
20260509134024 74 300 5.0 8.0 0.00 0.04 0.00 81 1012.5
20260509133047 73 321 4.0 8.0 0.00 0.04 0.00 83 1012.3
20260509132030 72 293 7.0 11.0 0.00 0.04 0.00 84 1012.2
20260509131016 72 290 6.0 10.0 0.00 0.04 0.00 85 1012.2
20260509130019 72 278 6.0 10.0 0.00 0.04 0.00 86 1012.2
20260509125022 72 289 7.0 10.0 0.00 0.04 0.00 86 1012.2
20260509124045 71 239 4.0 6.0 0.00 0.04 0.00 88 1012.1
20260509123048 70 271 4.0 7.0 0.00 0.04 0.00 91 1012.1
20260509122032 70 261 2.0 4.0 0.00 0.04 0.00 92 1011.9
20260509121037 70 232 3.0 3.0 0.00 0.04 0.00 93 1011.7
20260509120041 69 228 2.0 3.0 0.00 0.04 0.00 94 1011.9
20260509115024 69 266 1.0 2.0 0.00 0.04 0.00 93 1011.7
20260509114027 70 202 0.0 2.0 0.00 0.04 0.00 93 1011.7
20260509113025 70 172 2.0 2.0 0.00 0.04 0.00 91 1011.6
20260509112016 71 174 4.0 5.0 0.00 0.04 0.00 91 1011.6
20260509111019 72 212 4.0 6.0 0.00 0.04 0.00 90 1011.7
20260509110016 71 231 6.0 8.0 0.00 0.04 0.00 91 1011.7
20260509105026 71 271 3.0 6.0 0.00 0.04 0.00 93 1011.5
20260509104029 71 284 2.0 4.0 0.00 0.04 0.00 94 1011.5
20260509103053 71 284 3.0 6.0 0.00 0.04 0.00 95 1011.5
20260509102018 70 312 7.0 9.0 0.00 0.04 0.00 97 1011.3
20260509101041 70 265 6.0 12.0 0.00 0.04 0.00 98 1011.0
20260509100024 69 218 5.0 7.0 0.00 0.04 0.00 98 1009.3
20260509095027 70 171 6.0 9.0 0.00 0.04 0.00 98 1009.0
20260509094030 70 182 8.0 12.0 0.00 0.04 0.00 98 1008.9
20260509093020 70 180 9.0 15.0 0.00 0.04 0.00 98 1008.9
20260509092024 70 154 9.0 11.0 0.00 0.04 0.00 98 1009.0
20260509091022 70 184 9.0 13.0 0.00 0.04 0.00 98 1009.1
20260509090025 70 165 11.0 15.0 0.00 0.04 0.00 98 1009.2
20260509085029 69 173 11.0 15.0 0.00 0.04 0.00 98 1009.2
20260509084032 69 161 8.0 12.0 0.00 0.04 0.00 98 1010.0
20260509083017 69 173 7.0 9.0 0.00 0.04 0.00 98 1010.4
20260509082022 69 167 4.0 7.0 0.00 0.04 0.00 98 1011.0
20260509081044 69 177 4.0 6.0 0.00 0.04 0.00 97 1011.4
20260509080028 69 183 5.0 6.0 0.00 0.04 0.00 97 1012.0
20260509075050 69 192 5.0 8.0 0.00 0.04 0.00 97 1012.2
20260509074016 70 206 6.0 9.0 0.00 0.04 0.00 97 1012.9
20260509073019 70 231 5.0 8.0 0.00 0.04 0.00 97 1013.0
20260509072016 70 245 3.0 5.0 0.00 0.04 0.00 97 1013.2
20260509071026 70 267 4.0 7.0 0.00 0.04 0.00 98 1013.3
20260509070029 70 249 5.0 6.0 0.00 0.04 0.00 98 1013.3
20260509065032 69 251 4.0 5.0 0.00 0.04 0.00 99 1013.0
20260509064018 69 207 2.0 3.0 0.00 0.04 0.00 99 1013.0
20260509063021 69 245 1.0 2.0 0.00 0.04 0.00 99 1013.2
20260509062030 69 310 2.0 3.0 0.00 0.04 0.00 99 1013.2
20260509061028 69 0 0.0 2.0 0.00 0.04 0.00 99 1013.2
20260509060031 69 324 3.0 4.0 0.00 0.04 0.00 99 1013.2
20260509055016 69 304 3.0 4.0 0.00 0.04 0.00 98 1012.9
20260509054025 69 298 3.0 4.0 0.00 0.04 0.00 97 1012.2
20260509053023 69 162 2.0 3.0 0.00 0.04 0.00 97 1012.4
20260509052027 69 0.0 1.0 0.00 0.04 0.00 97 1012.3
20260509051050 70 193 0.0 2.0 0.00 0.04 0.00 96 1012.2
20260509050015 70 172 2.0 2.0 0.00 0.04 0.00 95 1012.1
20260509045020 70 166 2.0 4.0 0.00 0.04 0.04 94 1012.2
20260509044142 70 160 2.0 3.0 0.00 0.04 0.04 94 1012.5
20260509043025 71 103 1.0 2.0 0.00 0.04 0.04 93 1012.7
20260509042028 71 27 2.0 2.0 0.00 0.04 0.04 93 1012.6
20260509041046 71 55 1.0 2.0 0.00 0.04 0.04 92 1012.5
20260509040017 71 43 3.0 4.0 0.00 0.04 0.04 92 1012.1
20260509035020 71 142 1.0 2.0 0.00 0.04 0.04 91 1012.1
20260509034017 72 171 3.0 4.0 0.00 0.04 0.04 90 1011.7
20260509033020 72 163 3.0 4.0 0.00 0.04 0.04 90 1011.6
20260509032030 72 152 3.0 4.0 0.00 0.04 0.04 90 1011.6
20260509031016 72 150 2.0 3.0 0.00 0.04 0.04 89 1011.7
20260509030120 72 136 2.0 3.0 0.00 0.04 0.04 89 1011.2
20260509025022 72 156 4.0 5.0 0.00 0.04 0.04 89 1011.0
20260509024025 72 153 4.0 6.0 0.00 0.04 0.04 89 1011.0